Regional Weather Roundup
Issued by NWS

Home | Current Version | Previous Version | Graphics & Text | Print | Product List | Glossary On
Versions: 1 2 3 4 5 6 7 8 9 10 11 12 13 14 15 16 17 18 19 20 21 22 23 24 25 26 27 28 29 30 31 32 33 34 35 36 37 38 39 40 41 42 43 44 45 46 47 48 49 50
000
ASUS43 KOAX 181810
RWRNE

WEATHER ROUNDUP FOR NEBRASKA
NATIONAL WEATHER SERVICE OMAHA NE
100 PM CDT THU SEP 18 2014

NOTES: SATELLITE DATA IS BEING USED TO AUGMENT CLOUD COVER ABOVE
       12000 FEET.
       "FAIR" INDICATES FEW OR NO CLOUDS BELOW 12,000 FEET WITH NO
       SIGNIFICANT WEATHER AND/OR OBSTRUCTIONS TO VISIBILITY.

  * THESE STATIONS DO NOT REPORT WEATHER SUCH AS RAIN...SNOW OR FOG.

NEZ001>004-019>022-054>056-181900-
NEBRASKA PANHANDLE

CITY           SKY/WX    TMP DP  RH WIND       PRES   REMARKS
SCOTTSBLUFF    SUNNY     77  52  41 SE7       29.95F
6HR MIN TEMP:  53; 6HR MAX TEMP:  77;

ALLIANCE       SUNNY     78  58  49 S13       29.94F
6HR MIN TEMP:  61; 6HR MAX TEMP:  78;

CHADRON        SUNNY     82  57  42 S3        29.86F
6HR MIN TEMP:  46; 6HR MAX TEMP:  83;

KIMBALL        SUNNY     85  48  27 S12       29.99F
SIDNEY         SUNNY     80  56  43 S12       29.99F
6HR MIN TEMP:  56; 6HR MAX TEMP:  80;

$$

NEZ057>060-069>072-079>082-181900-
SOUTHWEST NEBRASKA

CITY           SKY/WX    TMP DP  RH WIND       PRES   REMARKS
NORTH PLATTE   CLOUDY    69  61  75 SE10      29.98S
6HR MIN TEMP:  59; 6HR MAX TEMP:  69;

IMPERIAL       CLOUDY    67  62  84 S13       29.98F
6HR MIN TEMP:  63; 6HR MAX TEMP:  67;

LEXINGTON      CLOUDY    68  63  82 S12       29.99F
MCCOOK         CLOUDY    64  63  96 E8        30.00R FOG
6HR MIN TEMP:  62; 6HR MAX TEMP:  65;

OGALLALA       CLOUDY    69  64  85 S10       29.98F
$$

NEZ005>010-023>029-035>040-094-181900-
NORTH CENTRAL NEBRASKA

CITY           SKY/WX    TMP DP  RH WIND       PRES   REMARKS
VALENTINE      PTSUNNY   77  62  59 S20G25    29.91F
6HR MIN TEMP:  61; 6HR MAX TEMP:  77;

AINSWORTH      SUNNY     74  56  53 S22       29.95F
BROKEN BOW     SUNNY     76  59  55 S16       29.98F
6HR MIN TEMP:  61; 6HR MAX TEMP:  76;

O`NEILL        CLOUDY    70  62  75 S18G25    29.99F
ORD            MOSUNNY   72  59  63 SE15      29.97F
6HR MIN TEMP:  59; 6HR MAX TEMP:  73;

$$

NEZ041-046>049-061>064-073>077-083>087-181900-
SOUTH CENTRAL NEBRASKA

CITY           SKY/WX    TMP DP  RH WIND       PRES   REMARKS
GRAND ISLAND   SUNNY     75  60  59 SE14      30.00F
6HR MIN TEMP:  61; 6HR MAX TEMP:  75;

AURORA         SUNNY     74  59  58 SE9G17    30.00F
HASTINGS       MOSUNNY   73  59  61 S12       30.00S
6HR MIN TEMP:  61; 6HR MAX TEMP:  73;

HEBRON         CLOUDY    74  63  68 S13G18    30.00S
HOLDREGE       CLOUDY    67  62  85 SE13      30.00S
KEARNEY *      CLOUDY    70  63  78 SE14      30.01S
YORK           SUNNY     73  63  68 SE9G17    30.01S
$$

NEZ011>018-030>034-042>045-181900-
NORTHEAST NEBRASKA

CITY           SKY/WX    TMP DP  RH WIND       PRES   REMARKS
NORFOLK        MOSUNNY   71  58  63 S14       30.01F
6HR MIN TEMP:  59; 6HR MAX TEMP:  72;

ALBION         MOSUNNY   70  60  71 SE9       30.01F
BLAIR          SUNNY     72  58  60 SE12      30.03F
COLUMBUS *     MOSUNNY   72  57  60 SE10G16   30.03S
FREMONT        SUNNY     73  57  57 SE10G17   30.03S
TEKAMAH        SUNNY     74  58  57 SE9       30.02F
6HR MIN TEMP:  53; 6HR MAX TEMP:  74;

WAYNE          MOSUNNY   72  58  62 S13       30.03S
$$

NEZ050>053-065>068-078-088>093-181900-
SOUTHEAST NEBRASKA

CITY           SKY/WX    TMP DP  RH WIND       PRES   REMARKS
LINCOLN        SUNNY     75  60  59 SE14      30.02F
6HR MIN TEMP:  62; 6HR MAX TEMP:  75;

OMAHA EPPLEY   MOSUNNY   72  57  59 SE10      30.03F
6HR MIN TEMP:  60; 6HR MAX TEMP:  73;

BEATRICE       SUNNY     75  61  60 SE12      30.00F
FALLS CITY     CLOUDY    66  59  78 E9        30.03F
6HR MIN TEMP:  60; 6HR MAX TEMP:  66;

NEBRASKA CITY  MOSUNNY   73  50  45 SE9G16    30.03F
$$

NEZ044-045-051>053-067-181900-
OMAHA AREA

CITY           SKY/WX    TMP DP  RH WIND       PRES   REMARKS
OMAHA EPPLEY   MOSUNNY   72  57  59 SE10      30.03F
6HR MIN TEMP:  60; 6HR MAX TEMP:  73;

BLAIR          SUNNY     72  58  60 SE12      30.03F
FREMONT        SUNNY     73  57  57 SE10G17   30.03S
MILLARD        SUNNY     72  58  61 E8        30.02F
WAHOO          MOCLDY    73  56  55 SE9G16    30.02S
$$



USA.gov is the U.S. government's official web portal to all federal, state and local government web resources and services.